Location: Unspecified
(0.0000°N, 0.0000°E)
Time: 07:53:02
(UTC+00:00)

Vanguard 2 Rocket - Pass Details

Date: 15 October 2022
Orbit: 555 x 3321 km, 32.9° (Epoch: 06 December)

Event Time Altitude Azimuth Distance (km) Brightness Sun altitude
Rises 19:14:17 0° 280° (W) 6,866 12.6 -21.9°
Reaches altitude 10° 19:20:22 10° 293° (WNW) 6,106 11.9 -23.4°
Maximum altitude 19:34:48 24° 339° (NNW) 5,133 10.7 -26.9°
Drops below altitude 10° 19:48:31 10° 27° (NNE) 5,733 10.6 -30.3°
Enters shadow 19:48:54 - 28° (NNE) 5,771 10.6 -30.4°
Sets 19:54:05 0° 41° (NE) 6,372 - -31.7°
